Content
SEND FEEDBACK

Daily
Averages
Monthly
Summary
United States of America

BOSTON, MASSACHUSETTS


Home > North America > United States > Massachusetts
Elevation: 4 feet     Latitude: 42 22N     Longitude: 071 02W

WEATHER
 
SELECT A DAY
Number of Records: 205,271;   Date Range: 1/1/95 - 10/17/14
 
SHARE

PRINT THIS DATA

[ ← Previous Day ]
WEATHER ALMANAC - JANUARY 3, 2013
[ Next Day → ]
[ °C ]   °F
Weather ElementAverageHighLow
Temperature17.1 °F25 °F (2:54 pm)7 °F (5:54 am)
Dewpoint-0.7 °F10 °F (10:54 pm)-7.1 °F (1:54 am)
Humidity46.8 %60 % (10:54 pm)29 % (3:54 pm)
Barometer30.08 in30.14 in (1:54 am)30.00 in (11:54 pm)
Wind Speed10.4 mph17.3 mph (1:54 am)
Wind Gust23 mph (1:54 am)
Weather ElementAverage
Visibility10 mi
Wind DirectionWNW (281.7 °)

Weather ElementTotal
Precipitation---
Heating Degree Days49 (Base 65)
Averaged from 23 records on January 3, 2013
WEATHER CONDITIONS BREAKOUT
WIND DIRECTION BREAKOUT
WEATHER BY HOUR - JANUARY 3, 2013
[ °C ]   °F
Local TimeTemperatureDewpointHumidityBarometerVisibilityWind DirectionWind SpeedGust SpeedPrecipitationEventsConditions
1:54 AM10.0 °F-7.1 °F46 %30.14 in10.0 miNW (320°)17.3 mph23.0 mphClear
2:54 AM9.0 °F-4.0 °F56 %30.13 in10.0 miWNW (290°)16.1 mphClear
3:54 AM8.1 °F-6.0 °F53 %30.13 in10.0 miWNW (300°)16.1 mphClear
4:54 AM8.1 °F-6.0 °F53 %30.12 in10.0 miNW (310°)10.4 mphClear
5:54 AM7.0 °F-6.0 °F55 %30.12 in10.0 miWNW (300°)10.4 mphPartly Cloudy
6:54 AM8.1 °F-6.0 °F53 %30.12 in10.0 miWNW (300°)9.2 mphScattered Clouds
7:54 AM8.1 °F-6.0 °F53 %30.14 in10.0 miWest (280°)10.4 mphScattered Clouds
8:54 AM10.0 °F-5.1 °F51 %30.13 in10.0 miWNW (300°)10.4 mphScattered Clouds
9:54 AM12.9 °F-2.9 °F49 %30.13 in10.0 miWNW (290°)10.4 mphScattered Clouds
10:54 AM16.0 °F-2.0 °F45 %30.10 in10.0 miNW (310°)9.2 mphScattered Clouds
11:54 AM19.0 °F-0.9 °F42 %30.09 in10.0 miWNW (290°)9.2 mphScattered Clouds
12:54 PM21.0 °F-2.0 °F36 %30.06 in10.0 miWNW (290°)13.8 mphScattered Clouds
1:54 PM23.0 °F0.0 °F37 %30.03 in10.0 miWest (270°)10.4 mphScattered Clouds
2:54 PM25.0 °F-2.0 °F31 %30.04 in10.0 miWest (280°)9.2 mphScattered Clouds
3:54 PM24.1 °F-4.0 °F29 %30.03 in10.0 miWest (260°)9.2 mphPartly Cloudy
4:54 PM23.0 °F-2.0 °F34 %30.03 in10.0 miWest (280°)6.9 mphPartly Cloudy
5:54 PM23.0 °F1.9 °F40 %30.04 in10.0 miWest (270°)9.2 mphPartly Cloudy
6:54 PM23.0 °F1.0 °F39 %30.05 in10.0 miWNW (290°)8.1 mphPartly Cloudy
7:54 PM24.1 °F6.1 °F46 %30.04 in10.0 miWest (270°)5.8 mphMostly Cloudy
8:54 PM24.1 °F9.0 °F53 %30.05 in10.0 miWest (280°)12.7 mph18.4 mphOvercast
9:54 PM21.9 °F9.0 °F58 %30.05 in10.0 miSW (230°)6.9 mphMostly Cloudy
10:54 PM21.9 °F10.0 °F60 %30.03 in10.0 miSW (220°)8.1 mphScattered Clouds
11:54 PM23.0 °F10.0 °F58 %30.00 in10.0 miWSW (250°)9.2 mphScattered Clouds
Hourly data recorded from KBOS, located miles away from Boston, Massachusetts







STORIES FROM OUR PARTNERS